JCSAT-3A

Last updated on Thu Nov 21 2024 00:02:40 GMT+0000 (Coordinated Universal Time)

1 29272U 06033A 24325.17759889 -.00000344 00000+0 00000+0 0 9994 2 29272 0.0177 309.4880 0002185 293.9281 8.2177 1.00268902 41986
UTC large
Height (km)
Speed (km/s)
/
Latitude / Longitude
Inclination (degrees)
Orbital Period (minutes)
Azimuth
Elevation
Range (km)
Doppler Factor

Next 0 passes for location: London (51.5072 / 0.1276)

Sorry there are no passes over London.